This is the latest recevied weather packets stored in our database for station/object KD2CRT. If no packets are shown the sender has not sent any weather packets the latest 10 day(s).
| Time | Temp. | Humidity | Pressure | Rain* | Wind** | Luminosity | Snow |
|---|---|---|---|---|---|---|---|
| 1777636808 | 6.67° C | 94% | 999.5 hPa | 0 mm | - | - | - |
| 1777629615 | 3.33° C | 90% | 998.8 hPa | 0 mm | - | - | - |
| 1777622415 | 5.56° C | 89% | 998 hPa | 0 mm | - | - | - |
| 1777615217 | 7.78° C | 90% | 997.2 hPa | 0 mm | - | - | - |
| 1777608027 | 10° C | 92% | 996.5 hPa | 0 mm | - | - | - |
| 1777600836 | 10.56° C | 90% | 996.3 hPa | 0.25 mm | - | - | - |
| 1777593641 | 14.44° C | 66% | 994 hPa | 0 mm | - | - | - |
| 1777590008 | 16.67° C | 55% | 993.3 hPa | 0 mm | - | - | - |
| 1777589995 | 16.67° C | 55% | 993.4 hPa | 0 mm | - | - | - |
| 1777586450 | 17.22° C | 55% | 993.2 hPa | 0 mm | - | - | - |
| 1777582808 | 16.67° C | 62% | 992.7 hPa | 0 mm | - | - | - |
| 1777582803 | 16.67° C | 62% | 992.7 hPa | 0 mm | - | - | - |
| 1777579227 | 16.11° C | 68% | 992.2 hPa | 0 mm | - | - | - |
| 1777572034 | 15° C | 78% | 992.8 hPa | 0 mm | - | - | - |
| 1777564841 | 13.33° C | 85% | 993.1 hPa | 0 mm | - | - | - |
| 1777557636 | 11.11° C | 93% | 993.2 hPa | 0 mm | - | - | - |
| 1777550442 | 9.44° C | 94% | 993.4 hPa | 0 mm | - | - | - |
| 1777543245 | 8.89° C | 94% | 993 hPa | 0 mm | - | - | - |
| 1777539611 | 8.33° C | 94% | 992.9 hPa | 0 mm | - | - | - |
| 1777539602 | 8.33° C | 94% | 993 hPa | 0 mm | - | - | - |
| 1777536050 | 8.89° C | 94% | 993.2 hPa | 0 mm | - | - | - |
| 1777532404 | 8.89° C | 93% | 993.7 hPa | 0.25 mm | - | - | - |
| 1777528851 | 9.44° C | 93% | 994.4 hPa | 2.79 mm | - | - | - |
| 1777525213 | 9.44° C | 93% | 994.5 hPa | 1.02 mm | - | - | - |
| 1777525211 | 9.44° C | 93% | 994.5 hPa | 1.02 mm | - | - | - |
* Rain latest hour (hover to see other rain measurements)
** Current wind speed in m/s (hover to see current wind gust speed)